ORBCOMM FM20 (25416 NORAD) Tracking and Keplerian Element Data

This shows tracking and keplerian element data for the satellite.

Feedback or suggestion? Click here.




ElementValue
Catalog25416
NameORBCOMM FM20
Epoch Orbit38516
Epoch Day35.12331241
Epoch Year2025
RAAN91.217
Inclination44.9935
Eccentricity0.0002607
Argument of Perigee269.9967
Mean Anonmoly90.0582
Mean Motion14.36707742
Decay Rate1.97E-05
L11 25416U 98046D 25035.12331241 .00001970 00000+0 70990-3 0 9991
L22 25416 44.9935 91.2170 0002607 269.9967 90.0582 14.36707742385165



Live tracking and technical data element details for ORBCOMM FM20 (NORAD 25416). ORBCOMM FM20 can be tracked NOW for your location showing map with azimuth and elevation plus other details from your city location.







IsCatalogInMostPopularTable: catalog: 25416, numindb: 299
Update: records affected: 1



GetName: 25416 ORBCOMM FM20

Hit Count: updated at: Thu, 15 May 2025 09:32:26 GMT